• In Belarus
  • List of Countries
  • For 7 days
  • Water Temperature
  • Satellite Maps
  • Weather Map
  • Weather Widgets
  • user-avatar
    Login

    Hourly Weather Newcastle

    Today, 21 February, Wednesday

    Time Temperature Precipitation Wind Pressure Humidity
    00:00 -8°C° 0 mm 1 mps 623 mmHg 56%
    01:00 -8°C° 0 mm 1 mps 623 mmHg 57%
    02:00 -8°C° 0 mm 1 mps 623 mmHg 57%
    03:00 -7°C° 0 mm 1 mps 623 mmHg 57%
    04:00 -7°C° 0 mm 1 mps 623 mmHg 57%
    05:00 -7°C° 0 mm 1 mps 623 mmHg 56%
    06:00 -8°C° 0 mm 2 mps 623 mmHg 55%
    07:00 -7°C° 0 mm 2 mps 623 mmHg 55%
    08:00 -6°C° 0 mm 2 mps 623 mmHg 50%
    09:00 -5°C° 0 mm 2 mps 624 mmHg 45%
    10:00 -4°C° 0 mm 2 mps 624 mmHg 40%
    11:00 -3°C° 0 mm 2 mps 624 mmHg 38%
    12:00 -2°C° 0 mm 2 mps 624 mmHg 36%
    13:00 -2°C° 0 mm 2 mps 624 mmHg 35%
    14:00 -2°C° 0 mm 2 mps 623 mmHg 36%
    15:00 -1°C° 0 mm 2 mps 623 mmHg 38%
    16:00 -1°C° 0 mm 2 mps 623 mmHg 39%
    17:00 -3°C° 0 mm 2 mps 623 mmHg 44%
    18:00 -2°C° 0 mm 1 mps 623 mmHg 48%
    19:00 -3°C° 0 mm 1 mps 622 mmHg 53%
    20:00 -3°C° 0 mm 1 mps 622 mmHg 54%
    21:00 -4°C° 0 mm 1 mps 622 mmHg 55%
    22:00 -4°C° 0 mm 1 mps 622 mmHg 55%
    23:00 -4°C° 0 mm 1 mps 622 mmHg 55%

    Tomorrow, 22 February, Thursday

    Time Temperature Precipitation Wind Pressure Humidity
    00:00 -4°C° 0 mm 1 mps 622 mmHg 55%
    01:00 -6°C° 0 mm 1 mps 622 mmHg 55%
    02:00 -6°C° 0 mm 1 mps 621 mmHg 55%
    03:00 -6°C° 0 mm 1 mps 621 mmHg 55%
    04:00 -7°C° 0 mm 2 mps 621 mmHg 55%
    05:00 -7°C° 0 mm 2 mps 621 mmHg 54%
    06:00 -6°C° 0 mm 2 mps 621 mmHg 53%
    07:00 -6°C° 0 mm 2 mps 622 mmHg 52%
    08:00 -6°C° 0 mm 3 mps 622 mmHg 47%
    09:00 -4°C° 0 mm 4 mps 622 mmHg 42%
    10:00 -4°C° 0 mm 6 mps 622 mmHg 37%
    11:00 -3°C° 0 mm 7 mps 622 mmHg 39%
    12:00 -3°C° 0 mm 7 mps 621 mmHg 40%
    13:00 -2°C° 0 mm 8 mps 620 mmHg 42%
    14:00 -4°C° 0.3 mm 8 mps 620 mmHg 50%
    15:00 -4°C° 0.3 mm 8 mps 619 mmHg 57%
    16:00 -5°C° 0.3 mm 8 mps 619 mmHg 65%
    17:00 -4°C° 1.1 mm 7 mps 619 mmHg 72%
    18:00 -5°C° 1.1 mm 6 mps 619 mmHg 79%
    19:00 -5°C° 1.1 mm 6 mps 618 mmHg 87%
    20:00 -6°C° 0.4 mm 5 mps 618 mmHg 87%
    21:00 -7°C° 0.4 mm 4 mps 618 mmHg 87%
    22:00 -6°C° 0.4 mm 3 mps 618 mmHg 87%
    23:00 -6°C° 0.2 mm 3 mps 618 mmHg 86%

    Day after tomorrow, 23 February, Friday

    Time Temperature Precipitation Wind Pressure Humidity
    00:00 -7°C° 0.2 mm 3 mps 618 mmHg 86%
    01:00 -7°C° 0.2 mm 3 mps 618 mmHg 85%
    02:00 -7°C° 0.1 mm 3 mps 618 mmHg 86%
    03:00 -8°C° 0.1 mm 3 mps 618 mmHg 86%
    04:00 -8°C° 0.1 mm 3 mps 618 mmHg 86%
    05:00 -7°C° 0.1 mm 2 mps 619 mmHg 85%
    06:00 -7°C° 0.1 mm 2 mps 619 mmHg 84%
    07:00 -7°C° 0.1 mm 1 mps 620 mmHg 83%
    08:00 -6°C° 0.2 mm 2 mps 620 mmHg 80%
    09:00 -5°C° 0.2 mm 2 mps 621 mmHg 77%
    10:00 -4°C° 0.2 mm 2 mps 622 mmHg 73%
    11:00 -4°C° 0.4 mm 3 mps 622 mmHg 73%
    12:00 -4°C° 0.4 mm 4 mps 622 mmHg 73%
    13:00 -5°C° 0.4 mm 5 mps 622 mmHg 73%
    14:00 -5°C° 0.1 mm 5 mps 622 mmHg 71%
    15:00 -5°C° 0.1 mm 5 mps 622 mmHg 70%
    16:00 -5°C° 0.1 mm 6 mps 622 mmHg 68%
    17:00 -6°C° 0 mm 5 mps 623 mmHg 73%
    18:00 -7°C° 0 mm 3 mps 623 mmHg 78%
    19:00 -7°C° 0 mm 2 mps 623 mmHg 83%
    20:00 -8°C° 0 mm 2 mps 624 mmHg 82%
    21:00 -8°C° 0 mm 2 mps 624 mmHg 81%
    22:00 -9°C° 0 mm 2 mps 625 mmHg 81%
    23:00 -9°C° 0 mm 2 mps 625 mmHg 80%

    24 February, Saturday

    Time Temperature Precipitation Wind Pressure Humidity
    00:00 -9°C° 0 mm 2 mps 625 mmHg 80%
    01:00 -10°C° 0 mm 2 mps 625 mmHg 80%
    02:00 -10°C° 0 mm 2 mps 625 mmHg 79%
    03:00 -10°C° 0 mm 2 mps 625 mmHg 78%
    04:00 -10°C° 0 mm 2 mps 625 mmHg 77%
    05:00 -10°C° 0 mm 2 mps 625 mmHg 75%
    06:00 -9°C° 0 mm 2 mps 626 mmHg 73%
    07:00 -9°C° 0 mm 2 mps 626 mmHg 71%
    08:00 -7°C° 0 mm 2 mps 627 mmHg 63%
    09:00 -5°C° 0 mm 2 mps 627 mmHg 56%
    10:00 -1°C° 0 mm 1 mps 627 mmHg 48%
    11:00 -2°C° 0 mm 2 mps 626 mmHg 48%
    12:00 -1°C° 0 mm 2 mps 626 mmHg 48%
    13:00 +1°C° 0 mm 2 mps 625 mmHg 48%
    14:00 +1°C° 0 mm 2 mps 625 mmHg 50%
    15:00 0°C° 0 mm 3 mps 625 mmHg 52%
    16:00 0°C° 0 mm 3 mps 624 mmHg 54%
    17:00 -1°C° 0 mm 3 mps 624 mmHg 59%
    18:00 -4°C° 0 mm 3 mps 624 mmHg 63%
    19:00 -4°C° 0 mm 2 mps 624 mmHg 68%
    20:00 -5°C° 0 mm 2 mps 624 mmHg 69%
    21:00 -5°C° 0 mm 2 mps 624 mmHg 69%
    22:00 -5°C° 0 mm 2 mps 624 mmHg 69%
    23:00 -5°C° 0 mm 2 mps 624 mmHg 69%

    25 February, Sunday

    Time Temperature Precipitation Wind Pressure Humidity
    00:00 -5°C° 0 mm 2 mps 624 mmHg 69%
    01:00 -6°C° 0 mm 2 mps 625 mmHg 69%
    02:00 -6°C° 0 mm 2 mps 625 mmHg 69%
    03:00 -6°C° 0 mm 2 mps 625 mmHg 70%
    04:00 -6°C° 0 mm 2 mps 625 mmHg 70%
    05:00 -6°C° 0 mm 2 mps 626 mmHg 70%
    06:00 -5°C° 0 mm 2 mps 627 mmHg 70%
    07:00 -5°C° 0 mm 2 mps 627 mmHg 70%
    08:00 -3°C° 0 mm 2 mps 628 mmHg 63%
    09:00 -2°C° 0 mm 2 mps 628 mmHg 56%
    10:00 +1°C° 0 mm 2 mps 629 mmHg 50%
    11:00 +2°C° 0 mm 2 mps 629 mmHg 48%
    12:00 +2°C° 0 mm 2 mps 629 mmHg 47%
    13:00 +3°C° 0 mm 2 mps 628 mmHg 45%
    14:00 +3°C° 0 mm 2 mps 628 mmHg 46%
    15:00 +3°C° 0 mm 2 mps 628 mmHg 47%
    16:00 +3°C° 0 mm 2 mps 628 mmHg 48%
    17:00 +1°C° 0 mm 2 mps 628 mmHg 53%
    18:00 -1°C° 0 mm 2 mps 627 mmHg 58%
    19:00 -1°C° 0 mm 1 mps 627 mmHg 63%
    20:00 -1°C° 0 mm 1 mps 627 mmHg 61%
    21:00 -1°C° 0 mm 1 mps 627 mmHg 60%
    22:00 -1°C° 0 mm 1 mps 627 mmHg 59%
    23:00 -1°C° 0 mm 1 mps 627 mmHg 57%

    26 February, Monday

    Time Temperature Precipitation Wind Pressure Humidity
    00:00 -1°C° 0 mm 1 mps 627 mmHg 56%
    01:00 -1°C° 0 mm 1 mps 627 mmHg 55%
    02:00 -1°C° 0 mm 1 mps 626 mmHg 54%
    03:00 -1°C° 0 mm 1 mps 626 mmHg 54%
    04:00 -3°C° 0 mm 2 mps 626 mmHg 53%
    05:00 -2°C° 0 mm 2 mps 626 mmHg 52%
    06:00 -2°C° 0 mm 2 mps 626 mmHg 51%
    07:00 -2°C° 0 mm 2 mps 626 mmHg 51%
    08:00 0°C° 0 mm 3 mps 626 mmHg 46%
    09:00 +2°C° 0 mm 3 mps 626 mmHg 42%
    10:00 +5°C° 0 mm 4 mps 626 mmHg 38%
    11:00 +5°C° 0 mm 4 mps 625 mmHg 37%
    12:00 +6°C° 0 mm 5 mps 625 mmHg 36%
    13:00 +6°C° 0 mm 5 mps 624 mmHg 36%
    14:00 +6°C° 0 mm 5 mps 624 mmHg 37%
    15:00 +6°C° 0 mm 4 mps 623 mmHg 39%
    16:00 +5°C° 0 mm 4 mps 622 mmHg 41%
    17:00 +4°C° 0 mm 3 mps 622 mmHg 44%
    18:00 +2°C° 0 mm 3 mps 622 mmHg 48%
    19:00 +1°C° 0 mm 2 mps 621 mmHg 51%
    20:00 +1°C° 0 mm 2 mps 621 mmHg 51%
    21:00 +1°C° 0 mm 2 mps 621 mmHg 50%
    22:00 -1°C° 0 mm 2 mps 621 mmHg 49%
    23:00 -1°C° 0 mm 2 mps 620 mmHg 49%
    Show more